Location: Newark
(49.3000°N, 9.4667°E)
Time: 11:56:14
(UTC+00:00)

Transit 4A - Pass Details

Date: 04 June 2019
Orbit: 862 x 983 km, 66.8° (Epoch: 18 June)

Event Time Altitude Azimuth Distance (km) Brightness Sun altitude
Rises 20:30:38 0° 322° (NW) 3,698 13.5 -8.9°
Reaches altitude 10° 20:33:15 10° 319° (NW) 2,744 12.1 -9.2°
Maximum altitude 20:39:33 59° 242° (WSW) 1,119 8.4 -9.8°
Enters shadow 20:45:31 11° 165° (SSE) 2,623 9.7 -10.4°
